TimeCST,TemperatureF,Dew PointF,Humidity,Sea Level PressureIn,VisibilityMPH,Wind Direction,Wind SpeedMPH,Gust SpeedMPH,PrecipitationIn,Events,Conditions,WindDirDegrees,DateUTC
12:15 AM,55.4,51.8,88,30.18,1.5,NNW,4.6,-,0.01,,Overcast,330,2013-11-22 06:15:00
12:35 AM,55.4,51.8,88,30.18,1.8,Calm,Calm,-,0.06,,Overcast,0,2013-11-22 06:35:00
12:55 AM,55.4,51.8,88,30.19,2.0,NNW,5.8,-,0.15,,Overcast,330,2013-11-22 06:55:00
1:15 AM,55.4,51.8,88,30.19,1.5,NNW,9.2,-,N/A,,Overcast,330,2013-11-22 07:15:00
1:35 AM,55.4,53.6,94,30.19,2.0,NNW,8.1,-,0.01,,Overcast,340,2013-11-22 07:35:00
1:55 AM,55.4,51.8,88,30.19,3.0,North,5.8,-,0.01,,Overcast,360,2013-11-22 07:55:00
2:15 AM,55.4,51.8,88,30.20,4.0,Calm,Calm,-,0.01,,Overcast,0,2013-11-22 08:15:00
2:35 AM,55.4,51.8,88,30.19,3.0,NNE,4.6,-,0.02,,Overcast,20,2013-11-22 08:35:00
2:55 AM,55.4,51.8,88,30.19,5.0,NNE,4.6,-,0.02,,Overcast,30,2013-11-22 08:55:00
3:15 AM,55.4,51.8,88,30.18,4.0,North,5.8,-,N/A,,Overcast,10,2013-11-22 09:15:00
3:35 AM,55.4,51.8,88,30.20,4.0,North,5.8,-,N/A,,Overcast,360,2013-11-22 09:35:00
3:55 AM,55.4,51.8,88,30.21,5.0,NNW,5.8,-,N/A,,Overcast,340,2013-11-22 09:55:00
4:15 AM,55.4,51.8,88,30.22,3.0,NNW,8.1,-,N/A,,Overcast,340,2013-11-22 10:15:00
4:35 AM,53.6,51.8,94,30.22,5.0,North,8.1,-,N/A,,Overcast,350,2013-11-22 10:35:00
4:55 AM,53.6,51.8,94,30.23,10.0,North,9.2,-,N/A,,Overcast,350,2013-11-22 10:55:00
5:15 AM,53.6,51.8,94,30.23,10.0,North,11.5,-,N/A,,Overcast,350,2013-11-22 11:15:00
5:35 AM,53.6,51.8,94,30.23,10.0,North,11.5,-,N/A,,Overcast,350,2013-11-22 11:35:00
5:55 AM,53.6,51.8,94,30.25,7.0,North,10.4,-,N/A,,Overcast,350,2013-11-22 11:55:00
6:15 AM,53.6,51.8,94,30.26,7.0,North,11.5,-,N/A,,Overcast,350,2013-11-22 12:15:00
6:35 AM,53.6,51.8,94,30.27,3.0,North,10.4,-,N/A,,Overcast,360,2013-11-22 12:35:00
6:55 AM,53.6,51.8,94,30.28,5.0,North,10.4,-,N/A,,Overcast,350,2013-11-22 12:55:00
7:15 AM,53.6,50.0,88,30.29,9.0,North,11.5,-,0.01,,Overcast,350,2013-11-22 13:15:00
7:35 AM,53.6,50.0,88,30.30,6.0,North,9.2,-,0.01,,Overcast,350,2013-11-22 13:35:00
7:55 AM,53.6,50.0,88,30.31,10.0,NNW,11.5,-,0.01,,Overcast,340,2013-11-22 13:55:00
8:15 AM,51.8,48.2,88,30.32,10.0,NNW,18.4,-,N/A,,Overcast,340,2013-11-22 14:15:00
8:35 AM,51.8,48.2,88,30.33,10.0,NNW,19.6,-,N/A,,Overcast,340,2013-11-22 14:35:00
8:55 AM,50.0,46.4,87,30.33,10.0,NNW,18.4,23.0,N/A,,Overcast,340,2013-11-22 14:55:00
9:15 AM,50.0,44.6,82,30.35,10.0,NNW,18.4,-,N/A,,Overcast,340,2013-11-22 15:15:00
9:35 AM,48.2,44.6,87,30.36,10.0,NNW,16.1,-,N/A,,Overcast,340,2013-11-22 15:35:00
9:55 AM,48.2,44.6,87,30.37,10.0,North,17.3,-,N/A,,Overcast,350,2013-11-22 15:55:00
10:15 AM,48.2,44.6,87,30.38,10.0,North,16.1,-,N/A,,Overcast,350,2013-11-22 16:15:00
10:35 AM,48.2,42.8,82,30.39,10.0,NNW,18.4,-,N/A,,Overcast,330,2013-11-22 16:35:00
10:55 AM,46.4,41.0,81,30.39,10.0,NNW,17.3,-,N/A,,Overcast,340,2013-11-22 16:55:00
11:15 AM,46.4,41.0,81,30.39,10.0,NNW,19.6,-,N/A,,Overcast,340,2013-11-22 17:15:00
11:35 AM,46.4,41.0,81,30.39,10.0,NNW,17.3,-,N/A,,Overcast,340,2013-11-22 17:35:00
11:55 AM,46.4,39.2,76,30.39,10.0,NNW,17.3,-,N/A,,Overcast,330,2013-11-22 17:55:00
12:15 PM,46.4,39.2,76,30.39,10.0,NNW,18.4,-,N/A,,Overcast,340,2013-11-22 18:15:00
12:35 PM,46.4,39.2,76,30.38,10.0,North,17.3,21.9,N/A,,Overcast,350,2013-11-22 18:35:00
12:55 PM,46.4,41.0,81,30.38,10.0,North,16.1,-,N/A,,Overcast,350,2013-11-22 18:55:00
1:15 PM,46.4,39.2,76,30.38,10.0,North,18.4,-,N/A,,Overcast,350,2013-11-22 19:15:00
1:35 PM,46.4,37.4,71,30.39,10.0,NNW,13.8,-,N/A,,Overcast,330,2013-11-22 19:35:00
1:55 PM,46.4,39.2,76,30.38,10.0,NNW,15.0,-,N/A,,Overcast,340,2013-11-22 19:55:00
2:15 PM,46.4,39.2,76,30.38,10.0,North,15.0,-,N/A,,Overcast,360,2013-11-22 20:15:00
2:35 PM,46.4,37.4,71,30.38,10.0,North,17.3,-,N/A,,Overcast,360,2013-11-22 20:35:00
2:55 PM,46.4,37.4,71,30.39,10.0,North,16.1,-,N/A,,Overcast,350,2013-11-22 20:55:00
3:15 PM,44.6,37.4,76,30.39,10.0,North,19.6,-,N/A,,Overcast,350,2013-11-22 21:15:00
3:35 PM,44.6,37.4,76,30.40,10.0,North,17.3,-,N/A,,Overcast,350,2013-11-22 21:35:00
3:55 PM,44.6,35.6,71,30.40,10.0,North,17.3,-,N/A,,Overcast,360,2013-11-22 21:55:00
4:15 PM,44.6,35.6,71,30.40,10.0,North,16.1,-,N/A,,Overcast,360,2013-11-22 22:15:00
4:35 PM,44.6,35.6,71,30.42,10.0,North,15.0,20.7,N/A,,Overcast,360,2013-11-22 22:35:00
4:55 PM,44.6,35.6,71,30.42,10.0,North,12.7,-,N/A,,Overcast,10,2013-11-22 22:55:00
5:15 PM,44.6,35.6,71,30.42,10.0,North,15.0,-,N/A,,Overcast,360,2013-11-22 23:15:00
5:35 PM,42.8,33.8,70,30.43,10.0,North,17.3,-,N/A,,Overcast,360,2013-11-22 23:35:00
5:55 PM,42.8,33.8,70,30.44,10.0,North,13.8,20.7,N/A,,Overcast,360,2013-11-22 23:55:00
6:15 PM,42.8,33.8,70,30.43,10.0,North,15.0,-,N/A,,Overcast,360,2013-11-23 00:15:00
6:35 PM,42.8,33.8,70,30.44,10.0,North,15.0,-,N/A,,Overcast,360,2013-11-23 00:35:00
6:55 PM,42.8,33.8,70,30.46,10.0,North,18.4,24.2,N/A,,Overcast,360,2013-11-23 00:55:00
7:15 PM,41.0,32.0,70,30.45,10.0,North,16.1,19.6,N/A,,Overcast,360,2013-11-23 01:15:00
7:35 PM,41.0,32.0,70,30.45,10.0,North,12.7,18.4,N/A,,Overcast,10,2013-11-23 01:35:00
7:55 PM,41.0,32.0,70,30.46,10.0,North,17.3,21.9,N/A,,Overcast,10,2013-11-23 01:55:00
8:15 PM,41.0,32.0,70,30.45,10.0,North,12.7,19.6,N/A,,Overcast,360,2013-11-23 02:15:00
8:35 PM,39.2,32.0,75,30.46,10.0,North,15.0,-,N/A,,Overcast,360,2013-11-23 02:35:00
8:55 PM,39.2,32.0,75,30.45,10.0,North,17.3,24.2,N/A,,Overcast,360,2013-11-23 02:55:00
9:15 PM,39.2,32.0,75,30.46,10.0,North,11.5,20.7,N/A,,Overcast,10,2013-11-23 03:15:00
9:35 PM,39.2,32.0,75,30.46,10.0,NNE,10.4,-,N/A,,Overcast,20,2013-11-23 03:35:00
9:55 PM,39.2,32.0,75,30.45,10.0,NNE,9.2,17.3,N/A,,Overcast,20,2013-11-23 03:55:00
10:15 PM,39.2,30.2,70,30.47,10.0,North,11.5,16.1,N/A,,Overcast,10,2013-11-23 04:15:00
10:35 PM,39.2,30.2,70,30.46,10.0,North,11.5,17.3,N/A,,Overcast,10,2013-11-23 04:35:00
10:55 PM,39.2,30.2,70,30.46,10.0,North,10.4,-,N/A,,Overcast,10,2013-11-23 04:55:00
11:15 PM,39.2,32.0,75,30.46,10.0,North,11.5,-,N/A,,Overcast,10,2013-11-23 05:15:00
11:35 PM,39.2,30.2,70,30.47,10.0,North,11.5,-,N/A,,Overcast,10,2013-11-23 05:35:00
11:55 PM,39.2,30.2,70,30.46,10.0,North,10.4,-,N/A,,Overcast,360,2013-11-23 05:55:00